Orbital Elements at Epoch 2459200.5 (2020-Dec-17.0) TDB
Reference: JPL 20 (heliocentric ecliptic J2000)
Element | Value | Uncertainty (1-sigma) | Units |
e | .1676212488969271 | 5.5664e-08 | |
a | 2.61929447571088 | 1.1225e-08 | au |
q | 2.180245064463401 | 1.4701e-07 | au |
i | 13.24081867258624 | 3.75e-06 | deg |
node | 280.2490358845938 | 2.5466e-05 | deg |
peri | 117.3219555735723 | 3.2562e-05 | deg |
M | 1.284913543774783 | 1.5463e-05 | deg |
tp | 2459194.973549003586 (2020-Dec-11.47354900) | 6.652e-05 | TDB |
period | 1548.370603102546 4.24 | 9.9529e-06 2.725e-08 | d yr |
n | .2325024766542651 | 1.4945e-09 | deg/d |
Q | 3.058343886958359 | 1.3106e-08 | au |
|
| | Orbit Determination Parameters
Additional Information
|